This demonstration page uses our WeatherBlox Daily Observations layout. Learn more.

Left ArrowRight Arrow

Hourly Observations for January 19, 2016

Temp ( °F °C ) Dew Point ( °F °C ) Humidity (%) Winds ( mph kmh ) Pressure ( in mb ) Visibility ( mi km ) Precip ( " mm )
12:53 am 00:53 Cloudy 25 -3.9 14 -10 63 63 SE 14 22 30.17 1022 10 16 0.00 0.00
1:53 am 01:53 Cloudy 23 -5 14 -10 68 68 SE 14 22 30.17 1022 10 16 0.00 0.00
2:53 am 02:53 Cloudy 23 -5 12 -11.1 63 63 SE 12 19 30.17 1022 10 16 0.00 0.00
3:53 am 03:53 Partly Cloudy 22 -5.6 12 -11.1 66 66 SSE 8 13 30.16 1022 10 16 0.00 0.00
4:53 am 04:53 Cloudy 22 -5.6 10 -12.2 60 60 SSE 9 15 30.18 1022 10 16 0.00 0.00
5:23 am 05:23 Cloudy 22 -5.6 11 -11.7 63 63 SE 6 9 30.24 1024 10 16 0.00 0.00
5:53 am 05:53 Cloudy 22 -5.6 11 -11.7 63 63 SSE 9 15 30.20 1023 10 16 0.00 0.00
6:53 am 06:53 Cloudy 22 -5.6 11 -11.7 63 63 E 6 9 30.22 1023 10 16 0.00 0.00
7:53 am 07:53 Cloudy 22 -5.6 12 -11.1 66 66 E 7 11 30.25 1024 10 16 0.00 0.00
8:53 am 08:53 Cloudy with Light Snow 21 -6.1 12 -11.1 68 68 E 6 9 30.26 1025 9 14 0.00 0.03
9:10 am 09:10 Cloudy with Light Snow 21 -6 12 -11 68 68 ESE 7 11 30.30 1026 2 3 0.00 0.00
9:25 am 09:25 Mostly Cloudy with Light Snow 21 -6.1 14 -10 74 74 E 7 11 30.30 1026 1 1 0.00 0.03
9:35 am 09:35 Cloudy with Light Snow 21 -6.1 14 -10 74 74 ESE 7 11 30.30 1026 2 3 0.00 0.03
9:51 am 09:51 Mostly Cloudy with Snow 19 -7 14 -10 79 79 E 7 11 30.30 1026 1 1 0.00 0.03
9:53 am 09:53 Mostly Cloudy with Snow 20 -6.7 15 -9.4 81 81 E 7 11 30.27 1025 1 1 0.00 0.03
10:04 am 10:04 Mostly Cloudy with Snow 19 -7 16 -9 86 86 E 6 9 30.36 1028 1 1 0.00 0.00
10:29 am 10:29 Mostly Cloudy with Light Snow 20 -6.7 16 -8.9 85 85 ESE 9 15 30.36 1028 1 2 0.02 0.51
10:48 am 10:48 Cloudy with Light Snow 21 -6 16 -9 80 80 E 7 11 30.33 1027 2 3 0.00 0.00
10:53 am 10:53 Cloudy with Light Snow 21 -6.1 15 -9.4 78 78 ESE 6 9 30.30 1026 2 2 0.02 0.51
11:30 am 11:30 Cloudy with Light Snow 21 -6 18 -8 86 86 Calm 30.36 1028 1 2 0.00 0.00
11:53 am 11:53 Cloudy 22 -5.6 16 -8.9 78 78 SE 10 17 30.29 1026 8 13 0.00 0.03
12:53 pm 12:53 Cloudy 23 -5 17 -8.3 78 78 ESE 3 6 30.28 1025 10 16 0.00 0.03
1:53 pm 13:53 Cloudy 24 -4.4 18 -7.8 77 77 Calm 30.25 1024 10 16 0.00 0.00
2:53 pm 14:53 Cloudy 25 -3.9 18 -7.8 75 75 Calm 30.24 1024 10 16 0.00 0.00
3:19 pm 15:19 Cloudy with Haze 25 -3.9 19 -7.2 78 78 NNW 3 6 30.27 1025 3 4 0.00 0.00
3:27 pm 15:27 Cloudy 25 -3.9 18 -7.8 75 75 Calm 30.27 1025 10 16 0.00 0.00
3:41 pm 15:41 Cloudy 25 -3.9 18 -7.8 75 75 Calm 30.30 1026 10 16 0.00 0.00
3:53 pm 15:53 Cloudy 25 -3.9 18 -7.8 75 75 Calm 30.24 1024 10 16 0.00 0.00
4:36 pm 16:36 Cloudy 25 -4 18 -8 74 74 Calm 30.30 1026 10 16 0.00 0.00
4:53 pm 16:53 Cloudy 27 -2.8 19 -7.2 72 72 Calm 30.25 1024 10 16 0.00 0.00
5:53 pm 17:53 Cloudy 25 -3.9 18 -7.8 75 75 Calm 30.27 1025 10 16 0.00 0.00
6:53 pm 18:53 Cloudy 25 -3.9 19 -7.2 78 78 Calm 30.27 1025 10 16 0.00 0.00
7:53 pm 19:53 Cloudy 24 -4.4 20 -6.7 84 84 SSE 6 9 30.27 1025 10 16 0.00 0.00
8:53 pm 20:53 Cloudy 23 -5 19 -7.2 85 85 S 6 9 30.26 1025 10 16 0.00 0.00
9:53 pm 21:53 Cloudy 24 -4.4 20 -6.7 84 84 S 6 9 30.25 1025 8 13 0.00 0.00
10:53 pm 22:53 Cloudy 24 -4.4 20 -6.7 84 84 S 6 9 30.24 1024 9 14 0.00 0.00
11:53 pm 23:53 Cloudy 24 -4.4 21 -6.1 88 88 S 6 9 30.23 1024 9 14 0.00 0.00

Powered by AerisWeather